#timestamp,LO_Frequency,Hit,StdDev 
1506078015.6,286047000.2,P
1506078035.4,286046999.2,N
1506078055.2,286046998.2,N
1506078075.1,286047003.3,Y
1506078076.0,286047003.3,P
1506078095.8,286047003.4,N
1506078115.7,286047004.0,N
1506078135.5,286047002.8,N
1506078155.3,286047004.0,N
1506078175.1,286047003.2,N
1506078195.9,286047004.6,N
1506078215.7,286047004.5,N
1506078235.5,286047009.8,Y
1506078255.4,286047005.9,P
1506078275.2,286047002.7,N
1506078295.0,286046999.4,N
1506078295.9,286046999.4,N
1506078315.8,286047000.8,N
1506078335.6,286047000.8,N
1506078355.4,286046999.7,N
1506078375.3,286047002.7,N
1506078395.1,286047003.2,N
1506078415.8,286047001.7,N
1506078435.7,286047002.2,N
1506078455.5,286047002.5,N
1506078475.3,286047001.4,N
1506078495.2,286046996.9,N
1506078515.9,286047000.7,N
1506078535.7,286047001.0,N
1506078555.6,286047000.1,N
1506078575.4,286047000.8,N
1506078595.2,286046998.9,N
1506078615.0,286047002.3,N
1506078615.9,286047002.3,N
1506078635.8,286047002.2,N
1506078655.6,286047004.2,N
1506078675.4,286047004.0,N
1506078695.3,286047004.4,N
1506078715.1,286047002.0,N
1506078716.0,286047002.0,N
1506078735.8,286046998.6,N
1506078755.7,286046998.2,N
1506078775.5,286047005.8,N
1506078795.3,286047002.0,N
1506078815.2,286047003.8,N
1506078835.9,286047001.4,N
1506078855.7,286047003.6,N
1506078875.6,286047004.2,N
1506078895.4,286047004.3,N
1506078915.2,286047003.3,N
1506078935.1,286047006.9,Y
1506078936.0,286047006.9,P
1506078955.8,286047005.8,N
1506078975.6,286047004.1,N
1506078995.5,286046998.4,N
1506079015.3,286046999.2,N
1506079035.1,286046999.5,N
1506079055.8,286046999.8,N
1506079075.7,286046998.6,N
1506079095.5,286046998.4,N
1506079115.3,286047001.2,N
1506079135.2,286046999.7,N
1506079155.9,286046999.7,N
1506079175.7,286047000.9,N
1506079195.6,286047001.8,N
1506079215.4,286047001.9,N
1506079235.2,286047003.6,N
1506079255.1,286047000.0,N
1506079256.0,286047000.0,N
1506079275.8,286047001.1,N
1506079295.6,286047000.4,N
1506079315.5,286047002.4,N
1506079335.3,286047001.1,N
1506079355.1,286046998.3,N
1506079375.9,286047002.3,N
1506079395.7,286047001.9,N
1506079415.5,286047000.1,N
1506079435.3,286046997.0,N
1506079455.2,286047003.9,N
1506079475.0,286047002.5,N
1506079475.9,286047002.5,N
1506079495.7,286047002.0,N
1506079515.6,286047002.8,N
1506079535.4,286047000.3,N
1506079555.2,286047001.6,N
1506079575.1,286046999.3,N
1506079576.0,286046999.3,N
1506079595.8,286046996.8,N
1506079615.6,286047000.4,N
1506079635.5,286047004.7,N
1506079655.3,286047000.0,N
1506079675.1,286047002.2,N
1506079695.9,286047005.4,N
1506079715.7,286047005.6,N
1506079735.5,286047003.1,N
1506079755.4,286047000.2,N
1506079775.2,286046996.8,N
1506079795.0,286046996.4,N
1506079795.9,286046996.4,N
1506079815.8,286046994.6,N
1506079835.6,286046993.5,N
1506079855.4,286046992.1,N
1506079875.2,286046994.5,N
1506079895.1,286046994.4,N
1506079896.0,286046994.4,N
1506079915.8,286046996.3,N
1506079935.6,286046993.7,N
1506079955.5,286046997.3,N
1506079975.3,286046997.1,N
1506079995.1,286047002.6,N
1506080015.9,286047000.0,N
1506080035.7,286047001.7,N
1506080055.5,286047003.2,N
1506080075.4,286047005.6,N
1506080095.2,286047006.9,N
1506080115.0,286046999.7,N
1506080115.9,286046999.7,N
1506080135.8,286047002.4,N
1506080155.6,286046999.4,N
1506080175.4,286046996.2,N
1506080195.3,286046995.1,N
1506080215.1,286046997.7,N
1506080216.0,286046997.7,N
1506080235.8,286047001.1,N
1506080255.7,286047000.1,N
1506080275.5,286047001.1,N
1506080295.3,286047001.2,N
1506080315.1,286047002.1,N
1506080335.9,286047000.4,N
1506080355.7,286047001.6,N
1506080375.5,286047002.3,N
1506080395.4,286047002.9,N
1506080415.2,286047003.4,N
1506080435.0,286047006.0,N
1506080435.9,286047006.0,N
1506080455.8,286047005.1,N
1506080475.6,286047004.7,N
1506080495.4,286047001.4,N
1506080515.3,286047001.0,N
1506080535.1,286046999.0,N
1506080536.0,286046999.0,N
1506080555.8,286047001.6,N
1506080575.7,286047000.7,N
1506080595.5,286046999.5,N
1506080615.3,286046999.3,N
1506080635.2,286046997.2,N
1506080655.9,286046995.5,N
1506080675.7,286046996.8,N
1506080695.5,286046993.3,N
1506080715.4,286046993.8,N
1506080735.2,286046995.2,N
1506080755.0,286046994.9,N
1506080755.9,286046994.9,N
1506080775.8,286046993.4,N
1506080795.6,286046992.0,N
1506080815.4,286046992.9,N
1506080835.3,286046994.7,N
1506080855.1,286046994.8,N
1506080875.8,286046992.5,N
1506080895.7,286046992.7,N
1506080915.5,286046990.5,N
1506080935.3,286046992.5,N
1506080955.2,286046994.8,N
1506080975.9,286046992.7,N
1506080995.7,286046994.2,N
1506081015.6,286046996.4,N
1506081035.4,286046992.8,N
1506081055.2,286046992.1,N
1506081075.1,286046988.9,Y
1506081076.0,286046988.9,P
1506081095.8,286046994.5,N
1506081115.6,286046994.6,N
1506081135.5,286046996.8,N
1506081155.3,286046996.1,N
1506081175.1,286046996.6,N
1506081195.8,286046995.5,N
1506081215.7,286046994.4,N
1506081235.5,286046994.0,N
1506081255.3,286046995.9,N
1506081275.2,286046995.4,N
1506081295.9,286046996.7,N
1506081315.7,286047002.3,N
1506081335.6,286046998.4,N
1506081355.4,286046997.3,N
1506081375.2,286046996.0,N
1506081395.1,286046995.2,N
1506081396.0,286046995.2,N
1506081415.8,286046995.5,N
1506081435.6,286046996.1,N
1506081455.5,286046995.7,N
1506081475.3,286046992.0,Y
1506081495.1,286046998.0,P
1506081515.9,286046994.2,P
1506081535.7,286046997.0,N
1506081555.5,286047000.9,N
1506081575.3,286047000.4,N
1506081595.2,286046999.9,N
